GALAXY 16 (G-16)

Last updated on Thu Sep 10 2026 00:02:55 GMT+0000 (Coordinated Universal Time)

1 29236U 06023A 26252.56598822 -.00000148 00000+0 00000+0 0 9997 2 29236 0.0136 177.6958 0002611 349.4543 286.2190 1.00272103 73812
UTC large
Height (km)
Speed (km/s)
/
Latitude / Longitude
Inclination (degrees)
Orbital Period (minutes)
Azimuth
Elevation
Range (km)
Doppler Factor

Next 0 passes for location: London (51.5072 / 0.1276)

No passes found over London.
GALAXY 16 (G-16)